To NAV CANADA Home Page Login to a new session Search on AWWS site Feedback and Comments Disclaimer Vers la page française équivalente Tips FAQ What's new on the site To the Forecasts and Observations / NOTAM section To "File a Flight Plan" website Publications and other links Update of the User's profile FIC Telephone Numbers My Weather Data Folder Route Weather Data Regional Weather Data Local Weather Data To the Forecasts and Observations / NOTAM section
Request Generated 07/02/2015 at 23:05:53 UTC . Weather information available at that time is displayed.

METAR/TAF

UMIUJAQ/QC    

METAR CYMU 022100Z 36015KT 15SM FEW020 SCT280 14/04 A2981 RMK CU2CI1 LAST OBS/ NEXT 031200Z SLP099=
METAR CYMU 022000Z 36015KT 15SM FEW020 SCT280 14/04 A2982 RMK CU2CI1 SLP103=

CYMU - No TAF is issued for this station

Your time UTC time
Weather data provided by Environment Canada and NAV CANADA